User: anonymous   Login
Location: Im Fang
(46.6019°N, 7.2397°E)
Time: 07:24:00
(UTC+00:00)
Language:

QB50P2 - Orbit

View from above orbital plane
View from above orbital plane
View from above satellite
View from above satellite

Ground track
Ground track

The orbit data is extracted from the following two-line orbital elements,

1 40032U 14033Y   21130.75132251  .00000287  00000-0  36597-4 0  9994
2 40032  97.9164  58.0135 0010593 304.7390  55.2829 14.88925797373681
Epoch (UTC): 10 May 2021 18:01:54
Eccentricity: 0.0010593
inclination: 97.9164°
perigee height: 594 km
apogee height: 608 km
right ascension of ascending node: 58.0135°
argument of perigee: 304.7390°
revolutions per day: 14.88925797
mean anomaly at epoch: 55.2829°
orbit number at epoch: 37368

The dashed part of the orbit path shows where the satellite is in the earth's shadow,  

DLR